Location: Borovka
(49.7741°N, 14.5280°E)
Time: 23:22:50
(UTC+00:00)

LilacSat-2 - Visible Passes

Search period start: 14 March 2026 00:00
Search period end: 24 March 2026 00:00
Orbit: 418 x 426 km, 97.5° (Epoch: 14 March)

Date Brightness Start Highest point End Pass type
(mag) Time Alt. Az. Time Alt. Az. Time Alt. Az.
14 Mar ? 18:10:15 10° S 18:13:30 71° WSW 18:16:46 10° NNW visible
15 Mar ? 19:00:00 10° SW 19:02:19 18° W 19:04:38 10° NW visible
16 Mar ? 18:15:18 10° S 18:18:32 61° W 18:21:47 10° NNW visible
17 Mar ? 19:05:11 10° SW 19:07:17 16° W 19:09:24 10° NW visible
18 Mar ? 18:20:12 10° S 18:23:23 53° W 18:26:36 10° NNW visible
19 Mar ? 19:10:14 10° SW 19:12:05 14° W 19:13:57 10° WNW visible
20 Mar ? 18:24:56 10° S 18:28:04 46° W 18:31:15 10° NNW visible
21 Mar ? 19:15:10 10° WSW 19:16:42 13° W 19:18:16 10° WNW visible
22 Mar ? 18:29:30 10° S 18:32:35 41° W 18:35:42 10° NNW visible
23 Mar ? 19:19:58 10° WSW 19:21:08 11° W 19:22:19 10° WNW visible
